SB KEPS @ AMSAT $ORB09297.O Orbital Elements 09297.OSCAR
HR AMSAT ORBITAL ELEMENTS FOR OSCAR SATELLITES FROM WA5QGD FORT WORTH,TX October 24, 2009 Send Subscribe/unsubscribe to KEPS at http://www.amsat.org/mailman/listinfo/keps BID: ORB09297.O TO ALL RADIO AMATEURS BT
Satellite: AO-07 Catalog number: 07530 Epoch time: 09297.61450316 Element set: 612 Inclination: 101.4191 deg RA of node: 317.5055 deg Eccentricity: 0.0012112 Arg of perigee: 015.7283 deg Mean anomaly: 344.4162 deg Mean motion: 12.53576887 rev/day Decay rate: -2.7e-07 rev/day^2 Epoch rev: 59893 Checksum: 291
Satellite: FO-29 Catalog number: 24278 Epoch time: 09296.60600480 Element set: 0176 Inclination: 098.5311 deg RA of node: 153.2553 deg Eccentricity: 0.0350990 Arg of perigee: 017.6266 deg Mean anomaly: 343.6691 deg Mean motion: 13.52946134 rev/day Decay rate: 2.9e-07 rev/day^2 Epoch rev: 65111 Checksum: 309
Satellite: SO-33 Catalog number: 25509 Epoch time: 09296.66512001 Element set: 0570 Inclination: 031.4332 deg RA of node: 045.9876 deg Eccentricity: 0.0353891 Arg of perigee: 021.8079 deg Mean anomaly: 339.7192 deg Mean motion: 14.28268138 rev/day Decay rate: 1.32e-06 rev/day^2 Epoch rev: 57421 Checksum: 309
Satellite: RS-22 Catalog number: 27939 Epoch time: 09296.68083358 Element set: 920 Inclination: 097.9204 deg RA of node: 166.7281 deg Eccentricity: 0.0014675 Arg of perigee: 086.9218 deg Mean anomaly: 273.3677 deg Mean motion: 14.63349314 rev/day Decay rate: 6.1e-07 rev/day^2 Epoch rev: 32436 Checksum: 340
Satellite: VO-52 Catalog number: 28650 Epoch time: 09296.63683321 Element set: 0351 Inclination: 097.7277 deg RA of node: 353.8665 deg Eccentricity: 0.0026549 Arg of perigee: 332.3447 deg Mean anomaly: 027.6349 deg Mean motion: 14.81630781 rev/day Decay rate: -9.5e-07 rev/day^2 Epoch rev: 24166 Checksum: 337
Satellite: SO-67 Catalog number: 35870 Epoch time: 09297.80851693 Element set: 109 Inclination: 097.3679 deg RA of node: 347.1782 deg Eccentricity: 0.0012347 Arg of perigee: 157.1810 deg Mean anomaly: 310.1232 deg Mean motion: 15.22821106 rev/day Decay rate: 5.26e-06 rev/day^2 Epoch rev: 564 Checksum: 304
/EX SB KEPS @ AMSAT $ORB09297.D Orbital Elements 09297.MICROS
HR AMSAT ORBITAL ELEMENTS FOR THE MICROSATS FROM WA5QGD FORT WORTH,TX October 24, 2009 Send Subscribe/unsubscribe to KEPS at http://www.amsat.org/mailman/listinfo/keps BID: ORB09297.D TO ALL RADIO AMATEURS BT
Satellite: AO-16 Catalog number: 20439 Epoch time: 09296.92471688 Element set: 0735 Inclination: 098.2966 deg RA of node: 259.5833 deg Eccentricity: 0.0011353 Arg of perigee: 144.2361 deg Mean anomaly: 215.9597 deg Mean motion: 14.31836646 rev/day Decay rate: 7.0e-08 rev/day^2 Epoch rev: 03157 Checksum: 335
Satellite: LO-19 Catalog number: 20442 Epoch time: 09296.61132415 Element set: 644 Inclination: 098.2600 deg RA of node: 266.0468 deg Eccentricity: 0.0012551 Arg of perigee: 141.7418 deg Mean anomaly: 218.4639 deg Mean motion: 14.32070418 rev/day Decay rate: -6.0e-07 rev/day^2 Epoch rev: 3169 Checksum: 282
Satellite: AO-27 Catalog number: 22825 Epoch time: 09297.79636745 Element set: 371 Inclination: 098.4547 deg RA of node: 247.2352 deg Eccentricity: 0.0007636 Arg of perigee: 239.7165 deg Mean anomaly: 120.3269 deg Mean motion: 14.29276393 rev/day Decay rate: 5.8e-07 rev/day^2 Epoch rev: 83842 Checksum: 348
Satellite: IO-26 Catalog number: 22826 Epoch time: 09297.83369807 Element set: 102 Inclination: 098.4465 deg RA of node: 247.9654 deg Eccentricity: 0.0008112 Arg of perigee: 235.8945 deg Mean anomaly: 124.1469 deg Mean motion: 14.29529172 rev/day Decay rate: -1.0e-07 rev/day^2 Epoch rev: 83853 Checksum: 332
Satellite: GO-32 Catalog number: 25397 Epoch time: 09297.71726895 Element set: 22 Inclination: 098.3213 deg RA of node: 313.0894 deg Eccentricity: 0.0000777 Arg of perigee: 183.7974 deg Mean anomaly: 176.3194 deg Mean motion: 14.23165473 rev/day Decay rate: 2.4e-07 rev/day^2 Epoch rev: 58655 Checksum: 334
Satellite: NO-44 Catalog number: 26931 Epoch time: 09297.71452613 Element set: 296 Inclination: 067.0512 deg RA of node: 090.6405 deg Eccentricity: 0.0006813 Arg of perigee: 273.0105 deg Mean anomaly: 087.0213 deg Mean motion: 14.29571386 rev/day Decay rate: 1.54e-06 rev/day^2 Epoch rev: 42109 Checksum: 286
Satellite: SO-50 Catalog number: 27607 Epoch time: 09296.63923156 Element set: 15 Inclination: 064.5602 deg RA of node: 354.9647 deg Eccentricity: 0.0051834 Arg of perigee: 172.6899 deg Mean anomaly: 187.4974 deg Mean motion: 14.71467938 rev/day Decay rate: 1.3e-07 rev/day^2 Epoch rev: 36757 Checksum: 351
Satellite: CO-55 Catalog number: 27844 Epoch time: 09296.59722135 Element set: 695 Inclination: 098.7138 deg RA of node: 303.9611 deg Eccentricity: 0.0010425 Arg of perigee: 130.1304 deg Mean anomaly: 230.0784 deg Mean motion: 14.20662064 rev/day Decay rate: 4.8e-07 rev/day^2 Epoch rev: 32749 Checksum: 301
Satellite: CO-57 Catalog number: 27848 Epoch time: 09297.57893075 Element set: 647 Inclination: 098.7178 deg RA of node: 303.9948 deg Eccentricity: 0.0010348 Arg of perigee: 131.6885 deg Mean anomaly: 228.5178 deg Mean motion: 14.20460947 rev/day Decay rate: 9.0e-08 rev/day^2 Epoch rev: 32759 Checksum: 370
Satellite: AO-51 Catalog number: 28375 Epoch time: 09296.94023113 Element set: 0517 Inclination: 098.0543 deg RA of node: 299.0596 deg Eccentricity: 0.0084812 Arg of perigee: 093.8778 deg Mean anomaly: 267.2110 deg Mean motion: 14.40655855 rev/day Decay rate: 1.1e-07 rev/day^2 Epoch rev: 27949 Checksum: 333
Satellite: CO-56 Catalog number: 28941 Epoch time: 09297.68475575 Element set: 556 Inclination: 098.0955 deg RA of node: 138.9518 deg Eccentricity: 0.0011688 Arg of perigee: 319.8691 deg Mean anomaly: 040.7485 deg Mean motion: 16.46998778 rev/day Decay rate: 1.4491492e-01 rev/day^2 Epoch rev: 20790 Checksum: 407
Satellite: GENESAT1 Catalog number: 29655 Epoch time: 09296.85376955 Element set: 0844 Inclination: 040.0176 deg RA of node: 095.5052 deg Eccentricity: 0.0005151 Arg of perigee: 008.0083 deg Mean anomaly: 352.0824 deg Mean motion: 15.68621820 rev/day Decay rate: 1.9650e-04 rev/day^2 Epoch rev: 16266 Checksum: 305
Satellite: CP3 Catalog number: 31129 Epoch time: 09297.57371927 Element set: 283 Inclination: 097.9738 deg RA of node: 344.3554 deg Eccentricity: 0.0101385 Arg of perigee: 244.2093 deg Mean anomaly: 114.8636 deg Mean motion: 14.52171994 rev/day Decay rate: 1.30e-06 rev/day^2 Epoch rev: 13366 Checksum: 317
Satellite: CO-65 Catalog number: 32785 Epoch time: 09296.18057247 Element set: 0514 Inclination: 097.9314 deg RA of node: 358.9905 deg Eccentricity: 0.0014496 Arg of perigee: 339.7035 deg Mean anomaly: 020.3599 deg Mean motion: 14.81529986 rev/day Decay rate: 5.4e-07 rev/day^2 Epoch rev: 08039 Checksum: 353
Satellite: KKS-1 Catalog number: 33493 Epoch time: 09297.70970045 Element set: 876 Inclination: 098.0680 deg RA of node: 050.5660 deg Eccentricity: 0.0019967 Arg of perigee: 179.4831 deg Mean anomaly: 180.6409 deg Mean motion: 14.80753861 rev/day Decay rate: 3.44e-06 rev/day^2 Epoch rev: 4063 Checksum: 326
Satellite: SOHLA-1 Catalog number: 33496 Epoch time: 09297.83313823 Element set: 841 Inclination: 098.0475 deg RA of node: 045.1820 deg Eccentricity: 0.0005547 Arg of perigee: 225.2436 deg Mean anomaly: 134.8312 deg Mean motion: 14.69451211 rev/day Decay rate: 3.7e-07 rev/day^2 Epoch rev: 4031 Checksum: 280
/EX SB KEPS @ AMSAT $ORB09297.W Orbital Elements 09297.WEATHER
HR AMSAT ORBITAL ELEMENTS FOR WEATHER SATELLITES FROM WA5QGD FORT WORTH,TX October 24, 2009 Send Subscribe/unsubscribe to KEPS at http://www.amsat.org/mailman/listinfo/keps BID: ORB09297.W TO ALL RADIO AMATEURS BT
Satellite: NOAA-10 Catalog number: 16969 Epoch time: 09297.48724277 Element set: 807 Inclination: 098.6815 deg RA of node: 323.3768 deg Eccentricity: 0.0012241 Arg of perigee: 176.2460 deg Mean anomaly: 183.8820 deg Mean motion: 14.27396643 rev/day Decay rate: -9.3e-07 rev/day^2 Epoch rev: 20195 Checksum: 336
Satellite: NOAA-11 Catalog number: 19531 Epoch time: 09297.33459616 Element set: 824 Inclination: 098.7806 deg RA of node: 025.2716 deg Eccentricity: 0.0012264 Arg of perigee: 099.1015 deg Mean anomaly: 261.1533 deg Mean motion: 14.14904215 rev/day Decay rate: -2.13e-06 rev/day^2 Epoch rev: 8778 Checksum: 299
Satellite: NOAA-12 Catalog number: 21263 Epoch time: 09297.74104283 Element set: 309 Inclination: 098.7731 deg RA of node: 305.8755 deg Eccentricity: 0.0013077 Arg of perigee: 127.0481 deg Mean anomaly: 233.1895 deg Mean motion: 14.25597801 rev/day Decay rate: 1.3e-07 rev/day^2 Epoch rev: 95885 Checksum: 317
Satellite: MET-3/5 Catalog number: 21655 Epoch time: 09296.91677393 Element set: 0678 Inclination: 082.5527 deg RA of node: 115.5731 deg Eccentricity: 0.0012731 Arg of perigee: 216.6819 deg Mean anomaly: 143.3433 deg Mean motion: 13.17021368 rev/day Decay rate: 5.1e-07 rev/day^2 Epoch rev: 87457 Checksum: 319
Satellite: MET-2/21 Catalog number: 22782 Epoch time: 09297.76577199 Element set: 599 Inclination: 082.5453 deg RA of node: 079.2175 deg Eccentricity: 0.0022154 Arg of perigee: 347.2215 deg Mean anomaly: 012.8388 deg Mean motion: 13.83639209 rev/day Decay rate: 8.0e-07 rev/day^2 Epoch rev: 81552 Checksum: 337
Satellite: OKEAN-4 Catalog number: 23317 Epoch time: 09297.73922453 Element set: 53 Inclination: 082.5409 deg RA of node: 213.5813 deg Eccentricity: 0.0020886 Arg of perigee: 301.1723 deg Mean anomaly: 058.7480 deg Mean motion: 14.82730870 rev/day Decay rate: 2.78e-06 rev/day^2 Epoch rev: 81156 Checksum: 302
Satellite: NOAA-14 Catalog number: 23455 Epoch time: 09297.68415762 Element set: 802 Inclination: 098.8994 deg RA of node: 014.8447 deg Eccentricity: 0.0009572 Arg of perigee: 178.4089 deg Mean anomaly: 181.7116 deg Mean motion: 14.13772410 rev/day Decay rate: 1.26e-06 rev/day^2 Epoch rev: 76422 Checksum: 330
